This is the latest recevied weather packets stored in our database for station/object N9DMT-13. If no packets are shown the sender has not sent any weather packets the latest 10 day(s).
| Time | Temp. | Humidity | Pressure | Rain* | Wind** | Luminosity | Snow |
|---|---|---|---|---|---|---|---|
| 1778218976 | 0° C | 85% | 979.9 hPa | 0 mm | - | - | - |
| 1778218675 | 0° C | 85% | 979.8 hPa | 0 mm | - | - | - |
| 1778218375 | 0° C | 85% | 979.6 hPa | 0 mm | - | - | - |
| 1778218074 | 0.56° C | 84% | 979.8 hPa | 0 mm | - | - | - |
| 1778217773 | 0.56° C | 84% | 980 hPa | 0 mm | - | - | - |
| 1778217472 | 0.56° C | 83% | 979.8 hPa | 0 mm | - | - | - |
| 1778216870 | 0.56° C | 84% | 979.7 hPa | 0 mm | - | - | - |
| 1778216569 | 0.56° C | 84% | 979.9 hPa | 0 mm | - | - | - |
| 1778216268 | 0.56° C | 83% | 979.8 hPa | 0 mm | - | - | - |
| 1778215967 | 0.56° C | 84% | 979.9 hPa | 0 mm | - | - | - |
| 1778215666 | 0.56° C | 85% | 979.8 hPa | 0 mm | - | - | - |
| 1778215366 | 0.56° C | 84% | 979.9 hPa | 0 mm | - | - | - |
| 1778215065 | 1.11° C | 83% | 979.9 hPa | 0 mm | - | - | - |
| 1778214764 | 1.11° C | 81% | 979.9 hPa | 0 mm | - | - | - |
| 1778214464 | 1.11° C | 80% | 979.9 hPa | 0 mm | - | - | - |
| 1778214163 | 1.67° C | 80% | 979.9 hPa | 0 mm | - | - | - |
| 1778213862 | 1.67° C | 80% | 980 hPa | 0 mm | - | - | - |
| 1778213561 | 2.22° C | 79% | 979.7 hPa | 0 mm | - | - | - |
| 1778213262 | 2.22° C | 78% | 979.7 hPa | 0 mm | - | - | - |
| 1778212960 | 2.22° C | 78% | 979.9 hPa | 0 mm | - | - | - |
| 1778212659 | 2.22° C | 79% | 979.8 hPa | 0 mm | - | - | - |
| 1778212358 | 2.78° C | 77% | 979.8 hPa | 0 mm | - | - | - |
| 1778212057 | 2.78° C | 76% | 979.8 hPa | 0 mm | - | - | - |
| 1778211756 | 2.78° C | 75% | 979.8 hPa | 0 mm | - | - | - |
| 1778211455 | 2.78° C | 75% | 979.7 hPa | 0 mm | - | - | - |
* Rain latest hour (hover to see other rain measurements)
** Current wind speed in m/s (hover to see current wind gust speed)